Time,TemperatureF,DewpointF,PressureIn,WindDirection,WindDirectionDegrees,WindSpeedMPH,WindSpeedGustMPH,Humidity,HourlyPrecipIn,Conditions,Clouds,dailyrainin,SoftwareType,DateUTC
2013-06-13 00:02:00,62.0,37.0,-100.00,East,90,1.0,4.0,40,-99.99,,,-99.99,,2013-06-13 06:02:00,
2013-06-13 00:11:00,61.0,37.0,-100.00,SSE,160,0.0,2.0,41,-99.99,,,-99.99,,2013-06-13 06:11:00,
2013-06-13 00:22:00,60.0,37.0,-100.00,South,180,0.0,4.0,41,-99.99,,,-99.99,,2013-06-13 06:22:00,
2013-06-13 00:33:00,59.0,36.0,-100.00,SSE,165,1.0,2.0,42,-99.99,,,-99.99,,2013-06-13 06:33:00,
2013-06-13 00:44:00,59.0,36.0,-100.00,SSE,165,1.0,2.0,42,-99.99,,,-99.99,,2013-06-13 06:44:00,
2013-06-13 00:52:00,58.0,37.0,-100.00,SE,145,0.0,3.0,44,-99.99,,,-99.99,,2013-06-13 06:52:00,
2013-06-13 01:01:00,58.0,37.0,-100.00,NNW,335,1.0,3.0,45,-99.99,,,-99.99,,2013-06-13 07:01:00,
2013-06-13 01:11:00,57.0,37.0,-100.00,NNE,30,1.0,2.0,46,-99.99,,,-99.99,,2013-06-13 07:11:00,
2013-06-13 01:22:00,57.0,35.0,-100.00,NNW,335,0.0,2.0,43,-99.99,,,-99.99,,2013-06-13 07:22:00,
2013-06-13 01:33:00,56.0,36.0,-100.00,SW,230,0.0,0.0,46,-99.99,,,-99.99,,2013-06-13 07:33:00,
2013-06-13 01:42:00,56.0,36.0,-100.00,SW,230,0.0,0.0,46,-99.99,,,-99.99,,2013-06-13 07:42:00,
2013-06-13 01:52:00,55.0,36.0,-100.00,WNW,285,1.0,2.0,47,-99.99,,,-99.99,,2013-06-13 07:52:00,
2013-06-13 02:01:00,55.0,36.0,-100.00,West,280,0.0,1.0,48,-99.99,,,-99.99,,2013-06-13 08:01:00,
2013-06-13 02:11:00,55.0,36.0,-100.00,NW,315,1.0,2.0,49,-99.99,,,-99.99,,2013-06-13 08:11:00,
2013-06-13 02:22:00,54.0,35.0,-100.00,North,0,0.0,0.0,47,-99.99,,,-99.99,,2013-06-13 08:22:00,
2013-06-13 02:32:00,54.0,35.0,-100.00,North,0,0.0,0.0,48,-99.99,,,-99.99,,2013-06-13 08:32:00,
2013-06-13 02:43:00,53.0,35.0,-100.00,North,0,0.0,1.0,48,-99.99,,,-99.99,,2013-06-13 08:43:00,
2013-06-13 02:52:00,53.0,34.0,-100.00,North,0,0.0,0.0,48,-99.99,,,-99.99,,2013-06-13 08:52:00,
2013-06-13 03:02:00,53.0,35.0,-100.00,NNW,335,0.0,2.0,50,-99.99,,,-99.99,,2013-06-13 09:02:00,
2013-06-13 03:11:00,53.0,34.0,-100.00,North,350,0.0,1.0,49,-99.99,,,-99.99,,2013-06-13 09:11:00,
2013-06-13 03:22:00,52.0,35.0,-100.00,NNE,25,0.0,2.0,50,-99.99,,,-99.99,,2013-06-13 09:22:00,
2013-06-13 03:32:00,52.0,35.0,-100.00,NNE,30,0.0,0.0,52,-99.99,,,-99.99,,2013-06-13 09:32:00,
2013-06-13 03:42:00,52.0,34.0,-100.00,NNE,30,0.0,1.0,51,-99.99,,,-99.99,,2013-06-13 09:42:00,
2013-06-13 03:52:00,52.0,35.0,-100.00,NE,40,0.0,1.0,52,-99.99,,,-99.99,,2013-06-13 09:52:00,
2013-06-13 04:01:00,51.0,35.0,-100.00,NNE,30,0.0,1.0,52,-99.99,,,-99.99,,2013-06-13 10:01:00,
2013-06-13 04:11:00,51.0,35.0,-100.00,NNE,30,0.0,0.0,53,-99.99,,,-99.99,,2013-06-13 10:11:00,
2013-06-13 04:22:00,51.0,35.0,-100.00,NE,40,0.0,2.0,54,-99.99,,,-99.99,,2013-06-13 10:22:00,
2013-06-13 04:33:00,51.0,35.0,-100.00,NNE,25,1.0,2.0,54,-99.99,,,-99.99,,2013-06-13 10:33:00,
2013-06-13 04:42:00,51.0,35.0,-100.00,North,5,0.0,1.0,53,-99.99,,,-99.99,,2013-06-13 10:42:00,
2013-06-13 04:53:00,51.0,35.0,-100.00,North,5,0.0,1.0,55,-99.99,,,-99.99,,2013-06-13 10:53:00,
2013-06-13 05:02:00,51.0,36.0,-100.00,NE,55,1.0,2.0,56,-99.99,,,-99.99,,2013-06-13 11:02:00,
2013-06-13 05:11:00,50.0,35.0,-100.00,NE,55,0.0,1.0,56,-99.99,,,-99.99,,2013-06-13 11:11:00,
2013-06-13 05:23:00,50.0,35.0,-100.00,NE,50,0.0,0.0,57,-99.99,,,-99.99,,2013-06-13 11:23:00,
2013-06-13 05:32:00,50.0,35.0,-100.00,NE,50,0.0,0.0,55,-99.99,,,-99.99,,2013-06-13 11:32:00,
2013-06-13 05:42:00,50.0,35.0,-100.00,NE,55,0.0,0.0,57,-99.99,,,-99.99,,2013-06-13 11:42:00,
2013-06-13 05:52:00,49.0,35.0,-100.00,NE,45,0.0,1.0,57,-99.99,,,-99.99,,2013-06-13 11:52:00,
2013-06-13 06:01:00,49.0,35.0,-100.00,NE,45,0.0,2.0,57,-99.99,,,-99.99,,2013-06-13 12:01:00,
2013-06-13 06:11:00,49.0,35.0,-100.00,NE,45,0.0,0.0,57,-99.99,,,-99.99,,2013-06-13 12:11:00,
2013-06-13 06:22:00,50.0,35.0,-100.00,NE,50,0.0,1.0,56,-99.99,,,-99.99,,2013-06-13 12:22:00,
2013-06-13 06:34:00,50.0,36.0,-100.00,NE,50,0.0,0.0,58,-99.99,,,-99.99,,2013-06-13 12:34:00,
2013-06-13 06:42:00,50.0,37.0,-100.00,NE,50,0.0,1.0,60,-99.99,,,-99.99,,2013-06-13 12:42:00,
2013-06-13 06:52:00,51.0,37.0,-100.00,North,0,2.0,3.0,58,-99.99,,,-99.99,,2013-06-13 12:52:00,
2013-06-13 07:01:00,51.0,37.0,-100.00,North,0,2.0,3.0,58,-99.99,,,-99.99,,2013-06-13 13:01:00,
2013-06-13 07:11:00,53.0,38.0,-100.00,NE,40,1.0,2.0,57,-99.99,,,-99.99,,2013-06-13 13:11:00,
2013-06-13 07:21:00,53.0,38.0,-100.00,North,0,1.0,2.0,55,-99.99,,,-99.99,,2013-06-13 13:21:00,
2013-06-13 07:32:00,55.0,40.0,-100.00,East,90,2.0,2.0,56,-99.99,,,-99.99,,2013-06-13 13:32:00,
2013-06-13 07:43:00,56.0,40.0,-100.00,East,90,1.0,3.0,54,-99.99,,,-99.99,,2013-06-13 13:43:00,
2013-06-13 07:53:00,57.0,39.0,-100.00,ESE,120,0.0,2.0,52,-99.99,,,-99.99,,2013-06-13 13:53:00,
2013-06-13 08:02:00,58.0,40.0,-100.00,SE,135,1.0,1.0,50,-99.99,,,-99.99,,2013-06-13 14:02:00,
2013-06-13 08:11:00,60.0,40.0,-100.00,ENE,65,1.0,2.0,47,-99.99,,,-99.99,,2013-06-13 14:11:00,
2013-06-13 08:22:00,60.0,40.0,-100.00,ENE,70,0.0,2.0,46,-99.99,,,-99.99,,2013-06-13 14:22:00,
2013-06-13 08:33:00,61.0,41.0,-100.00,SSE,155,1.0,2.0,46,-99.99,,,-99.99,,2013-06-13 14:33:00,
2013-06-13 08:43:00,62.0,41.0,-100.00,ENE,75,0.0,2.0,46,-99.99,,,-99.99,,2013-06-13 14:43:00,
2013-06-13 08:53:00,63.0,41.0,-100.00,NNW,335,1.0,3.0,43,-99.99,,,-99.99,,2013-06-13 14:53:00,
2013-06-13 09:01:00,65.0,41.0,-100.00,ENE,60,1.0,3.0,42,-99.99,,,-99.99,,2013-06-13 15:01:00,
2013-06-13 09:12:00,67.0,42.0,-100.00,ESE,110,2.0,4.0,40,-99.99,,,-99.99,,2013-06-13 15:12:00,
2013-06-13 09:22:00,68.0,42.0,-100.00,ESE,115,1.0,3.0,39,-99.99,,,-99.99,,2013-06-13 15:22:00,
2013-06-13 09:33:00,70.0,44.0,-100.00,ENE,70,1.0,2.0,38,-99.99,,,-99.99,,2013-06-13 15:33:00,
2013-06-13 09:53:00,72.0,43.0,-100.00,ENE,60,1.0,2.0,34,-99.99,,,-99.99,,2013-06-13 15:53:00,
2013-06-13 10:01:00,72.0,42.0,-100.00,ESE,120,0.0,2.0,34,-99.99,,,-99.99,,2013-06-13 16:01:00,
2013-06-13 10:12:00,72.0,43.0,-100.00,SSE,150,1.0,2.0,35,-99.99,,,-99.99,,2013-06-13 16:12:00,
2013-06-13 10:22:00,72.0,43.0,-100.00,SSE,160,1.0,2.0,35,-99.99,,,-99.99,,2013-06-13 16:22:00,
2013-06-13 10:33:00,73.0,43.0,-100.00,SE,125,1.0,2.0,34,-99.99,,,-99.99,,2013-06-13 16:33:00,
2013-06-13 10:43:00,73.0,43.0,-100.00,SE,145,0.0,2.0,34,-99.99,,,-99.99,,2013-06-13 16:43:00,
2013-06-13 10:53:00,75.0,44.0,-100.00,SE,125,1.0,3.0,32,-99.99,,,-99.99,,2013-06-13 16:53:00,
2013-06-13 11:02:00,77.0,44.0,-100.00,SE,145,2.0,3.0,30,-99.99,,,-99.99,,2013-06-13 17:02:00,
2013-06-13 11:11:00,77.0,44.0,-100.00,SSE,150,1.0,2.0,30,-99.99,,,-99.99,,2013-06-13 17:11:00,
2013-06-13 11:24:00,78.0,44.0,-100.00,SSE,165,2.0,4.0,30,-99.99,,,-99.99,,2013-06-13 17:24:00,
2013-06-13 11:33:00,80.0,46.0,-100.00,SSE,160,2.0,3.0,30,-99.99,,,-99.99,,2013-06-13 17:33:00,
2013-06-13 11:43:00,82.0,46.0,-100.00,South,170,1.0,3.0,28,-99.99,,,-99.99,,2013-06-13 17:43:00,
2013-06-13 11:53:00,84.0,47.0,-100.00,NNE,30,1.0,4.0,27,-99.99,,,-99.99,,2013-06-13 17:53:00,
2013-06-13 12:02:00,85.0,47.0,-100.00,East,80,2.0,4.0,27,-99.99,,,-99.99,,2013-06-13 18:02:00,
2013-06-13 12:11:00,84.0,47.0,-100.00,SE,145,0.0,4.0,27,-99.99,,,-99.99,,2013-06-13 18:11:00,
2013-06-13 12:22:00,84.0,47.0,-100.00,WNW,285,0.0,4.0,27,-99.99,,,-99.99,,2013-06-13 18:22:00,
2013-06-13 12:33:00,84.0,47.0,-100.00,SW,225,1.0,3.0,28,-99.99,,,-99.99,,2013-06-13 18:33:00,
2013-06-13 12:43:00,84.0,49.0,-100.00,South,190,2.0,4.0,29,-99.99,,,-99.99,,2013-06-13 18:43:00,
2013-06-13 12:52:00,84.0,49.0,-100.00,SSW,195,2.0,4.0,29,-99.99,,,-99.99,,2013-06-13 18:52:00,
2013-06-13 13:01:00,85.0,49.0,-100.00,South,185,1.0,6.0,28,-99.99,,,-99.99,,2013-06-13 19:01:00,
2013-06-13 13:11:00,86.0,48.0,-100.00,SSE,150,1.0,7.0,27,-99.99,,,-99.99,,2013-06-13 19:11:00,
2013-06-13 13:22:00,85.0,48.0,-100.00,SE,135,3.0,9.0,27,-99.99,,,-99.99,,2013-06-13 19:22:00,
2013-06-13 13:33:00,86.0,48.0,-100.00,SW,225,4.0,10.0,26,-99.99,,,-99.99,,2013-06-13 19:33:00,
2013-06-13 13:43:00,86.0,47.0,-100.00,North,0,3.0,9.0,26,-99.99,,,-99.99,,2013-06-13 19:43:00,
2013-06-13 13:53:00,86.0,47.0,-100.00,SSE,150,4.0,10.0,25,-99.99,,,-99.99,,2013-06-13 19:53:00,
2013-06-13 14:01:00,86.0,45.0,-100.00,SW,230,8.0,19.0,24,-99.99,,,-99.99,,2013-06-13 20:01:00,
2013-06-13 14:11:00,87.0,46.0,-100.00,NW,325,2.0,9.0,24,-99.99,,,-99.99,,2013-06-13 20:11:00,
2013-06-13 14:22:00,87.0,46.0,-100.00,SSE,155,7.0,14.0,24,-99.99,,,-99.99,,2013-06-13 20:22:00,
2013-06-13 14:32:00,87.0,46.0,-100.00,South,190,3.0,16.0,24,-99.99,,,-99.99,,2013-06-13 20:32:00,
2013-06-13 14:44:00,87.0,45.0,-100.00,SSE,165,8.0,17.0,23,-99.99,,,-99.99,,2013-06-13 20:44:00,
2013-06-13 14:53:00,86.0,45.0,-100.00,WSW,255,9.0,21.0,23,-99.99,,,-99.99,,2013-06-13 20:53:00,
2013-06-13 15:02:00,85.0,44.0,-100.00,South,180,4.0,19.0,23,-99.99,,,-99.99,,2013-06-13 21:02:00,
2013-06-13 15:11:00,85.0,45.0,-100.00,SSW,205,9.0,17.0,24,-99.99,,,-99.99,,2013-06-13 21:11:00,
2013-06-13 15:22:00,85.0,44.0,-100.00,South,170,11.0,26.0,23,-99.99,,,-99.99,,2013-06-13 21:22:00,
2013-06-13 15:34:00,85.0,43.0,-100.00,South,175,7.0,19.0,23,-99.99,,,-99.99,,2013-06-13 21:34:00,
2013-06-13 15:43:00,85.0,43.0,-100.00,SW,215,7.0,19.0,23,-99.99,,,-99.99,,2013-06-13 21:43:00,
2013-06-13 15:52:00,85.0,43.0,-100.00,South,170,4.0,14.0,23,-99.99,,,-99.99,,2013-06-13 21:52:00,
2013-06-13 16:02:00,85.0,43.0,-100.00,SSW,205,4.0,12.0,23,-99.99,,,-99.99,,2013-06-13 22:02:00,
2013-06-13 16:11:00,85.0,44.0,-100.00,East,100,3.0,9.0,24,-99.99,,,-99.99,,2013-06-13 22:11:00,
2013-06-13 16:22:00,84.0,44.0,-100.00,SSE,160,2.0,6.0,24,-99.99,,,-99.99,,2013-06-13 22:22:00,
2013-06-13 16:32:00,84.0,44.0,-100.00,East,95,4.0,9.0,24,-99.99,,,-99.99,,2013-06-13 22:32:00,
2013-06-13 16:42:00,83.0,44.0,-100.00,SSE,150,7.0,12.0,24,-99.99,,,-99.99,,2013-06-13 22:42:00,
2013-06-13 16:52:00,84.0,44.0,-100.00,East,85,3.0,7.0,24,-99.99,,,-99.99,,2013-06-13 22:52:00,
2013-06-13 17:02:00,84.0,44.0,-100.00,SSE,160,4.0,12.0,24,-99.99,,,-99.99,,2013-06-13 23:02:00,
2013-06-13 17:11:00,84.0,44.0,-100.00,SSE,155,2.0,7.0,24,-99.99,,,-99.99,,2013-06-13 23:11:00,
2013-06-13 17:22:00,84.0,46.0,-100.00,SE,130,1.0,4.0,26,-99.99,,,-99.99,,2013-06-13 23:22:00,
2013-06-13 17:32:00,84.0,46.0,-100.00,East,95,1.0,6.0,26,-99.99,,,-99.99,,2013-06-13 23:32:00,
2013-06-13 17:43:00,84.0,44.0,-100.00,SSE,160,3.0,9.0,24,-99.99,,,-99.99,,2013-06-13 23:43:00,
2013-06-13 17:52:00,84.0,44.0,-100.00,East,90,3.0,10.0,24,-99.99,,,-99.99,,2013-06-13 23:52:00,
2013-06-13 18:01:00,83.0,45.0,-100.00,East,85,4.0,7.0,26,-99.99,,,-99.99,,2013-06-14 00:01:00,
2013-06-13 18:11:00,83.0,45.0,-100.00,ENE,70,2.0,7.0,26,-99.99,,,-99.99,,2013-06-14 00:11:00,
2013-06-13 18:22:00,83.0,45.0,-100.00,NE,40,2.0,3.0,26,-99.99,,,-99.99,,2013-06-14 00:22:00,
2013-06-13 18:34:00,82.0,46.0,-100.00,ENE,60,1.0,2.0,27,-99.99,,,-99.99,,2013-06-14 00:34:00,
2013-06-13 18:43:00,82.0,45.0,-100.00,ENE,60,2.0,3.0,27,-99.99,,,-99.99,,2013-06-14 00:43:00,
2013-06-13 18:53:00,81.0,46.0,-100.00,ESE,115,2.0,4.0,28,-99.99,,,-99.99,,2013-06-14 00:53:00,
2013-06-13 19:01:00,80.0,46.0,-100.00,NE,45,1.0,2.0,30,-99.99,,,-99.99,,2013-06-14 01:01:00,
2013-06-13 19:11:00,79.0,47.0,-100.00,East,100,0.0,4.0,32,-99.99,,,-99.99,,2013-06-14 01:11:00,
2013-06-13 19:22:00,78.0,48.0,-100.00,ENE,70,1.0,2.0,34,-99.99,,,-99.99,,2013-06-14 01:22:00,
2013-06-13 19:32:00,77.0,49.0,-100.00,SW,215,0.0,2.0,36,-99.99,,,-99.99,,2013-06-14 01:32:00,
2013-06-13 19:43:00,76.0,49.0,-100.00,SW,220,0.0,0.0,37,-99.99,,,-99.99,,2013-06-14 01:43:00,
2013-06-13 19:52:00,75.0,49.0,-100.00,SW,230,0.0,2.0,38,-99.99,,,-99.99,,2013-06-14 01:52:00,
2013-06-13 20:02:00,74.0,49.0,-100.00,SW,215,0.0,3.0,40,-99.99,,,-99.99,,2013-06-14 02:02:00,
2013-06-13 20:11:00,74.0,49.0,-100.00,SE,145,0.0,2.0,40,-99.99,,,-99.99,,2013-06-14 02:11:00,
2013-06-13 20:22:00,73.0,48.0,-100.00,West,260,2.0,5.0,40,-99.99,,,-99.99,,2013-06-14 02:22:00,
2013-06-13 20:32:00,72.0,46.0,-100.00,North,350,1.0,2.0,38,-99.99,,,-99.99,,2013-06-14 02:32:00,
2013-06-13 20:43:00,72.0,44.0,-100.00,WSW,245,0.0,2.0,36,-99.99,,,-99.99,,2013-06-14 02:43:00,
2013-06-13 20:52:00,71.0,44.0,-100.00,SW,225,2.0,4.0,36,-99.99,,,-99.99,,2013-06-14 02:52:00,
2013-06-13 21:02:00,71.0,43.0,-100.00,WSW,250,2.0,4.0,36,-99.99,,,-99.99,,2013-06-14 03:02:00,
2013-06-13 21:11:00,71.0,42.0,-100.00,NNW,335,0.0,6.0,34,-99.99,,,-99.99,,2013-06-14 03:11:00,
2013-06-13 21:22:00,71.0,41.0,-100.00,NNW,335,1.0,6.0,34,-99.99,,,-99.99,,2013-06-14 03:22:00,
2013-06-13 21:34:00,70.0,41.0,-100.00,North,0,1.0,3.0,34,-99.99,,,-99.99,,2013-06-14 03:34:00,
2013-06-13 21:43:00,70.0,41.0,-100.00,NNW,345,2.0,4.0,34,-99.99,,,-99.99,,2013-06-14 03:43:00,
2013-06-13 21:52:00,71.0,41.0,-100.00,North,350,1.0,6.0,34,-99.99,,,-99.99,,2013-06-14 03:52:00,
2013-06-13 22:01:00,71.0,41.0,-100.00,NW,320,2.0,4.0,33,-99.99,,,-99.99,,2013-06-14 04:01:00,
2013-06-13 22:12:00,70.0,40.0,-100.00,NW,320,2.0,4.0,33,-99.99,,,-99.99,,2013-06-14 04:12:00,
2013-06-13 22:22:00,70.0,40.0,-100.00,NW,320,3.0,4.0,34,-99.99,,,-99.99,,2013-06-14 04:22:00,
2013-06-13 22:33:00,69.0,40.0,-100.00,SW,220,1.0,4.0,34,-99.99,,,-99.99,,2013-06-14 04:33:00,
2013-06-13 22:43:00,69.0,40.0,-100.00,WNW,290,2.0,6.0,34,-99.99,,,-99.99,,2013-06-14 04:43:00,
2013-06-13 22:53:00,68.0,40.0,-100.00,South,170,1.0,4.0,35,-99.99,,,-99.99,,2013-06-14 04:53:00,
2013-06-13 23:02:00,67.0,39.0,-100.00,WSW,250,0.0,3.0,35,-99.99,,,-99.99,,2013-06-14 05:02:00,
2013-06-13 23:11:00,65.0,39.0,-100.00,NW,315,3.0,4.0,37,-99.99,,,-99.99,,2013-06-14 05:11:00,
2013-06-13 23:22:00,65.0,38.0,-100.00,WNW,300,2.0,4.0,37,-99.99,,,-99.99,,2013-06-14 05:22:00,
2013-06-13 23:34:00,64.0,39.0,-100.00,NW,305,2.0,4.0,39,-99.99,,,-99.99,,2013-06-14 05:34:00,
2013-06-13 23:43:00,63.0,39.0,-100.00,WSW,255,3.0,4.0,41,-99.99,,,-99.99,,2013-06-14 05:43:00,
2013-06-13 23:52:00,62.0,39.0,-100.00,WNW,295,3.0,4.0,41,-99.99,,,-99.99,,2013-06-14 05:52:00,